This demonstration page uses our WeatherBlox Daily Observations layout. Learn more.

Left ArrowRight Arrow

Hourly Observations for November 25, 2022

Temp ( °F °C ) Dew Point ( °F °C ) Humidity (%) Winds ( mph kmh ) Pressure ( in mb ) Visibility ( mi km ) Precip ( " mm )
12:15 am 00:15 Clear 45 7 36 2 70 70 SSW 6 9 30.18 1022 10 16 0.00 0.00
12:35 am 00:35 Partly Cloudy 45 7 36 2 70 70 S 6 9 30.16 1021 10 16 0.00 0.00
12:55 am 00:55 Partly Cloudy 45 7 36 2 70 70 SSW 6 9 30.15 1021 10 16 0.00 0.00
1:15 am 01:15 Partly Cloudy 45 7 36 2 70 70 SSW 6 9 30.14 1021 10 16 0.00 0.00
1:35 am 01:35 Partly Cloudy 45 7 36 2 70 70 SSW 7 11 30.14 1021 10 16 0.00 0.00
1:55 am 01:55 Mostly Cloudy 45 7 36 2 70 70 S 7 11 30.13 1020 10 16 0.00 0.00
2:15 am 02:15 Mostly Cloudy 45 7 36 2 70 70 S 7 11 30.12 1020 10 16 0.00 0.00
2:35 am 02:35 Cloudy 45 7 36 2 70 70 SSW 6 9 30.11 1020 10 16 0.00 0.00
2:55 am 02:55 Cloudy 45 7 36 2 70 70 S 5 7 30.11 1020 10 16 0.00 0.00
3:15 am 03:15 Partly Cloudy 45 7 37 3 76 76 SSW 3 6 30.10 1019 10 16 0.00 0.00
3:35 am 03:35 Mostly Cloudy 45 7 37 3 76 76 S 3 6 30.09 1019 10 16 0.00 0.00
3:55 am 03:55 Mostly Cloudy 45 7 37 3 76 76 Calm 30.07 1018 10 16 0.00 0.00
4:15 am 04:15 Mostly Cloudy 45 7 37 3 76 76 Calm 30.06 1018 10 16 0.00 0.00
4:35 am 04:35 Cloudy 45 7 36 2 70 70 Calm 30.07 1018 10 16 0.00 0.00
4:55 am 04:55 Cloudy 45 7 37 3 76 76 Calm 30.05 1018 10 16 0.00 0.00
5:15 am 05:15 Cloudy with Light Rain 45 7 37 3 76 76 Calm 30.05 1018 10 16 0.00 0.00
5:35 am 05:35 Cloudy with Light Rain 43 6 41 5 93 93 Calm 30.04 1017 10 16 0.00 0.00
5:55 am 05:55 Cloudy with Light Rain 43 6 43 6 100 100 Calm 30.04 1017 10 16 0.00 0.00
6:15 am 06:15 Cloudy with Light Rain 43 6 43 6 100 100 SSE 3 6 30.03 1017 7 11 0.00 0.00
6:35 am 06:35 Cloudy with Light Rain 45 7 43 6 93 93 S 6 9 30.02 1017 7 11 0.00 0.00
6:55 am 06:55 Cloudy with Light Rain 43 6 43 6 100 100 SW 3 6 30.01 1016 10 16 0.00 0.00
7:15 am 07:15 Cloudy with Light Rain 43 6 43 6 100 100 Calm 30.01 1016 7 11 0.00 0.00
7:35 am 07:35 Cloudy with Light Rain 43 6 43 6 100 100 Calm 30.01 1016 7 11 0.00 0.00
7:55 am 07:55 Cloudy with Light Rain 43 6 43 6 100 100 Calm 30.00 1016 7 11 0.00 0.00
8:15 am 08:15 Cloudy with Light Rain 43 6 43 6 100 100 SSW 5 7 29.99 1016 5 8 0.00 0.00
8:35 am 08:35 Cloudy 43 6 43 6 100 100 WSW 3 6 29.99 1016 7 11 0.00 0.00
8:55 am 08:55 Mostly Cloudy 43 6 43 6 100 100 WNW 3 6 29.99 1016 7 11 0.00 0.00
9:15 am 09:15 Mostly Cloudy 45 7 43 6 93 93 Calm 29.99 1016 7 11 0.00 0.00
9:35 am 09:35 Cloudy 45 7 45 7 100 100 Calm 29.99 1016 10 16 0.00 0.00
9:55 am 09:55 Cloudy 46 8 45 7 93 93 Calm 30.00 1016 10 16 0.00 0.00
10:15 am 10:15 Cloudy 46 8 45 7 93 93 Calm 29.99 1016 10 16 0.00 0.00
10:35 am 10:35 Cloudy 46 8 45 7 93 93 Calm 29.98 1015 10 16 0.00 0.00
10:55 am 10:55 Partly Cloudy 50 10 46 8 87 87 Calm 29.98 1015 10 16 0.00 0.00
11:15 am 11:15 Sunny 55 13 46 8 72 72 Calm 29.95 1014 10 16 0.00 0.00
11:35 am 11:35 Partly Cloudy 61 16 48 9 63 63 NW 16 26 29.94 1014 10 16 0.00 0.00
11:55 am 11:55 Partly Cloudy 61 16 46 8 59 59 NW 16 26 29.93 1013 10 16 0.00 0.00
12:15 pm 12:15 Partly Cloudy 61 16 46 8 59 59 NNW 16 26 29.91 1013 10 16 0.00 0.00
12:35 pm 12:35 Partly Cloudy 61 16 46 8 59 59 NW 25 41 29.91 1013 10 16 0.00 0.00
12:55 pm 12:55 Partly Cloudy 61 16 45 7 55 55 NW 21 33 29.91 1013 10 16 0.00 0.00
1:15 pm 13:15 Mostly Cloudy 61 16 45 7 55 55 NW 20 31 29.91 1013 10 16 0.00 0.00
1:35 pm 13:35 Cloudy 61 16 45 7 55 55 WNW 21 33 29.91 1013 10 16 0.00 0.00
1:55 pm 13:55 Mostly Cloudy 59 15 43 6 55 55 WNW 25 41 29.91 1013 10 16 0.00 0.00
2:15 pm 14:15 Partly Cloudy 59 15 43 6 55 55 NW 21 33 29.91 1013 10 16 0.00 0.00
2:35 pm 14:35 Partly Cloudy 59 15 43 6 55 55 WNW 18 30 29.91 1013 10 16 0.00 0.00
2:55 pm 14:55 Partly Cloudy 59 15 41 5 51 51 NNW 23 37 29.92 1013 10 16 0.00 0.00
3:15 pm 15:15 Sunny 59 15 37 3 44 44 NW 25 41 29.93 1013 10 16 0.00 0.00
3:35 pm 15:35 Sunny 57 14 37 3 47 47 NW 17 28 29.94 1014 10 16 0.00 0.00
3:55 pm 15:55 Sunny 55 13 37 3 51 51 NNW 17 28 29.95 1014 10 16 0.00 0.00
4:15 pm 16:15 Sunny 55 13 37 3 51 51 NNW 13 20 29.95 1014 10 16 0.00 0.00
4:35 pm 16:35 Sunny 54 12 37 3 54 54 NNW 13 20 29.96 1015 10 16 0.00 0.00
4:55 pm 16:55 Clear 54 12 37 3 54 54 NW 13 20 29.97 1015 10 16 0.00 0.00
5:15 pm 17:15 Clear 52 11 36 2 54 54 NW 13 20 29.98 1015 10 16 0.00 0.00
5:35 pm 17:35 Clear 52 11 36 2 54 54 NNW 10 17 30.00 1016 10 16 0.00 0.00
5:55 pm 17:55 Clear 52 11 36 2 54 54 NW 12 19 29.98 1015 10 16 0.00 0.00
6:15 pm 18:15 Clear 50 10 36 2 57 57 NW 13 20 29.99 1015 10 16 0.00 0.00
6:35 pm 18:35 Clear 50 10 34 1 53 53 NW 12 19 30.01 1016 10 16 0.00 0.00
6:55 pm 18:55 Clear 50 10 34 1 53 53 NNW 9 15 30.02 1016 10 16 0.00 0.00
7:15 pm 19:15 Clear 50 10 34 1 53 53 NNW 14 22 30.03 1017 10 16 0.00 0.00
7:35 pm 19:35 Clear 50 10 34 1 53 53 NNW 10 17 30.04 1017 10 16 0.00 0.00
7:55 pm 19:55 Clear 50 10 34 1 53 53 NNW 9 15 30.05 1018 10 16 0.00 0.00
8:15 pm 20:15 Clear 50 10 34 1 53 53 N 12 19 30.06 1018 10 16 0.00 0.00
8:35 pm 20:35 Clear 50 10 34 1 53 53 N 10 17 30.06 1018 10 16 0.00 0.00
8:55 pm 20:55 Clear 48 9 34 1 57 57 N 10 17 30.06 1018 10 16 0.00 0.00
9:15 pm 21:15 Clear 48 9 34 1 57 57 NNW 15 24 30.08 1019 10 16 0.00 0.00
9:35 pm 21:35 Clear 48 9 34 1 57 57 N 9 15 30.07 1018 10 16 0.00 0.00
9:55 pm 21:55 Clear 48 9 34 1 57 57 NNW 10 17 30.08 1019 10 16 0.00 0.00
10:15 pm 22:15 Clear 46 8 34 1 61 61 NNW 18 30 30.07 1018 10 16 0.00 0.00
10:35 pm 22:35 Clear 46 8 34 1 61 61 N 7 11 30.09 1019 10 16 0.00 0.00
10:55 pm 22:55 Clear 46 8 34 1 61 61 N 6 9 30.09 1019 10 16 0.00 0.00
11:15 pm 23:15 Clear 45 7 34 1 66 66 NNW 10 17 30.10 1019 10 16 0.00 0.00
11:35 pm 23:35 Clear 45 7 34 1 66 66 NNW 3 6 30.11 1020 10 16 0.00 0.00
11:55 pm 23:55 Clear 45 7 34 1 66 66 N 3 6 30.12 1020 10 16 0.00 0.00

Powered by AerisWeather